NSZ926 ESSA-EKCH

Flight info

Callsign NSZ926
Flight time N/A
Altitude 36000
Route PETEV N872 ELPAX DCT TOKSI N872 ERNOV
Aircraft B738/M-SDGIJ1LRWY/SB1

Departure

Time 2026-05-06 18:15
Airport Stockholm-Arlanda Airport (ESSA)

Arrival

Time N/A
Airport Copenhagen Kastrup Airport (EKCH)
Time Latitude Longitude Altitude Speed Heading
2026-05-06 17:35 59.64431 17.92683 124 ft 0 kts 51°
2026-05-06 18:01 59.64429 17.92679 124 ft 2 kts 51°
2026-05-06 18:02 59.64420 17.92656 124 ft 2 kts 50°
2026-05-06 18:02 59.64410 17.92633 123 ft 2 kts 50°
2026-05-06 18:02 59.64401 17.92610 122 ft 2 kts 50°
2026-05-06 18:02 59.64391 17.92586 121 ft 2 kts 50°
2026-05-06 18:03 59.64382 17.92563 121 ft 2 kts 50°
2026-05-06 18:03 59.64376 17.92549 121 ft 2 kts 50°
2026-05-06 18:03 59.64365 17.92528 121 ft 2 kts 34°
2026-05-06 18:03 59.64352 17.92514 121 ft 2 kts 21°
2026-05-06 18:04 59.64337 17.92506 121 ft 2 kts
2026-05-06 18:04 59.64323 17.92504 121 ft 2 kts 355°
2026-05-06 18:04 59.64308 17.92509 121 ft 2 kts 342°
2026-05-06 18:04 59.64294 17.92520 121 ft 2 kts 329°
2026-05-06 18:05 59.64282 17.92537 121 ft 2 kts 316°
2026-05-06 18:05 59.64272 17.92560 122 ft 2 kts 303°
2026-05-06 18:05 59.64269 17.92573 122 ft 1 kts 296°
2026-05-06 18:05 59.64267 17.92578 122 ft 0 kts 297°
2026-05-06 18:06 59.64267 17.92577 122 ft 0 kts 297°
2026-05-06 18:09 59.64272 17.92559 122 ft 5 kts 297°
2026-05-06 18:10 59.64307 17.92426 119 ft 16 kts 298°
2026-05-06 18:10 59.64372 17.92182 114 ft 22 kts 297°
2026-05-06 18:10 59.64417 17.92011 112 ft 11 kts 301°
2026-05-06 18:10 59.64484 17.91958 112 ft 11 kts
2026-05-06 18:11 59.64594 17.91994 111 ft 19 kts 11°
2026-05-06 18:11 59.64753 17.92057 109 ft 27 kts 12°
2026-05-06 18:11 59.64963 17.92134 105 ft 32 kts 12°
2026-05-06 18:11 59.65188 17.92216 105 ft 33 kts 10°
2026-05-06 18:12 59.65400 17.92290 106 ft 30 kts 11°
2026-05-06 18:12 59.65603 17.92363 112 ft 28 kts
2026-05-06 18:12 59.65793 17.92430 115 ft 27 kts 10°
2026-05-06 18:12 59.65976 17.92497 117 ft 26 kts 11°
2026-05-06 18:13 59.66120 17.92549 123 ft 17 kts 10°
2026-05-06 18:13 59.66229 17.92588 127 ft 14 kts 11°
2026-05-06 18:13 59.66322 17.92622 130 ft 12 kts 10°
2026-05-06 18:13 59.66394 17.92648 133 ft 8 kts 10°
2026-05-06 18:14 59.66449 17.92657 135 ft 9 kts 353°
2026-05-06 18:14 59.66545 17.92601 137 ft 18 kts 341°
2026-05-06 18:14 59.66620 17.92425 135 ft 19 kts 264°
2026-05-06 18:14 59.66602 17.92368 134 ft 1 kts 184°
2026-05-06 18:15 59.66530 17.92335 132 ft 35 kts 193°
2026-05-06 18:15 59.66018 17.92157 121 ft 109 kts 192°
2026-05-06 18:15 59.65066 17.91817 217 ft 155 kts 188°
2026-05-06 18:15 59.64102 17.91383 1081 ft 145 kts 189°
2026-05-06 18:16 59.63076 17.91014 1682 ft 155 kts 185°
2026-05-06 18:16 59.61993 17.90658 2255 ft 166 kts 191°
2026-05-06 18:16 59.61002 17.89349 2753 ft 188 kts 231°
2026-05-06 18:16 59.60395 17.86985 3307 ft 201 kts 241°
2026-05-06 18:17 59.59707 17.84498 3802 ft 215 kts 236°
2026-05-06 18:17 59.58870 17.81948 4367 ft 225 kts 236°
2026-05-06 18:17 59.58060 17.79227 4932 ft 236 kts 241°
2026-05-06 18:17 59.57310 17.76331 5561 ft 243 kts 244°
2026-05-06 18:18 59.56491 17.73382 6214 ft 248 kts 238°
2026-05-06 18:18 59.55386 17.70773 6945 ft 250 kts 228°
2026-05-06 18:18 59.54145 17.68371 7660 ft 252 kts 226°
2026-05-06 18:18 59.52886 17.65956 8395 ft 252 kts 227°
2026-05-06 18:19 59.51672 17.63541 9097 ft 253 kts 229°
2026-05-06 18:19 59.50444 17.61045 9792 ft 254 kts 229°
2026-05-06 18:19 59.49228 17.58547 10471 ft 255 kts 229°
2026-05-06 18:19 59.47995 17.56020 11153 ft 256 kts 229°
2026-05-06 18:20 59.46776 17.53538 11813 ft 257 kts 229°
2026-05-06 18:20 59.45523 17.51001 12482 ft 259 kts 229°
2026-05-06 18:20 59.44280 17.48481 13174 ft 259 kts 229°
2026-05-06 18:20 59.43033 17.45945 13879 ft 261 kts 229°
2026-05-06 18:21 59.41760 17.43358 14558 ft 263 kts 229°
2026-05-06 18:21 59.40489 17.40807 15241 ft 264 kts 229°
2026-05-06 18:21 59.39225 17.38269 15941 ft 263 kts 229°
2026-05-06 18:21 59.37944 17.35664 16551 ft 265 kts 230°
2026-05-06 18:22 59.36669 17.33073 17186 ft 265 kts 229°
2026-05-06 18:22 59.35385 17.30483 17778 ft 267 kts 229°
2026-05-06 18:22 59.34102 17.27902 18359 ft 268 kts 229°
2026-05-06 18:22 59.32785 17.25259 18917 ft 270 kts 229°
2026-05-06 18:23 59.31468 17.22637 19469 ft 271 kts 228°
2026-05-06 18:23 59.30160 17.20036 19989 ft 272 kts 228°
2026-05-06 18:23 59.28824 17.17376 20520 ft 273 kts 229°
2026-05-06 18:23 59.27495 17.14719 21041 ft 273 kts 229°
2026-05-06 18:24 59.26173 17.12063 21548 ft 273 kts 229°
2026-05-06 18:24 59.24858 17.09409 22027 ft 274 kts 229°
2026-05-06 18:24 59.23527 17.06732 22436 ft 276 kts 229°
2026-05-06 18:24 59.22178 17.04043 22886 ft 277 kts 228°
2026-05-06 18:25 59.20825 17.01374 23336 ft 277 kts 228°
2026-05-06 18:25 59.19417 16.98834 23751 ft 280 kts 224°
2026-05-06 18:25 59.17907 16.96386 24185 ft 280 kts 223°
2026-05-06 18:25 59.16397 16.94003 24579 ft 281 kts 223°
2026-05-06 18:26 59.14888 16.91602 24950 ft 282 kts 223°
2026-05-06 18:26 59.13375 16.89177 25311 ft 283 kts 223°
2026-05-06 18:26 59.11854 16.86729 25668 ft 284 kts 223°
2026-05-06 18:26 59.10324 16.84265 25988 ft 287 kts 223°
2026-05-06 18:27 59.08791 16.81795 26413 ft 285 kts 223°
2026-05-06 18:27 59.07259 16.79314 26732 ft 286 kts 223°
2026-05-06 18:27 59.05740 16.76855 27015 ft 288 kts 223°
2026-05-06 18:27 59.04192 16.74362 27332 ft 289 kts 222°
2026-05-06 18:28 59.02646 16.71887 27607 ft 291 kts 223°
2026-05-06 18:28 59.01074 16.69372 27878 ft 292 kts 223°
2026-05-06 18:28 58.99515 16.66877 28158 ft 293 kts 222°
2026-05-06 18:28 58.97929 16.64339 28489 ft 292 kts 222°
2026-05-06 18:29 58.96361 16.61830 28747 ft 293 kts 222°
2026-05-06 18:29 58.94794 16.59325 29009 ft 294 kts 222°
2026-05-06 18:29 58.93210 16.56792 29260 ft 294 kts 222°
2026-05-06 18:29 58.91609 16.54235 29476 ft 296 kts 222°
2026-05-06 18:30 58.90019 16.51698 29711 ft 297 kts 222°
2026-05-06 18:30 58.88415 16.49145 29969 ft 297 kts 222°
2026-05-06 18:30 58.86820 16.46608 30214 ft 297 kts 222°
2026-05-06 18:30 58.85218 16.44065 30465 ft 298 kts 222°
2026-05-06 18:31 58.83591 16.41484 30684 ft 299 kts 222°
2026-05-06 18:31 58.81970 16.38913 30784 ft 306 kts 222°
2026-05-06 18:31 58.80315 16.36291 31104 ft 310 kts 222°
2026-05-06 18:31 58.78633 16.33629 31304 ft 319 kts 221°
2026-05-06 18:32 58.76876 16.30854 31403 ft 330 kts 221°
2026-05-06 18:32 58.75097 16.28046 31497 ft 341 kts 221°
2026-05-06 18:32 58.73230 16.25103 31531 ft 353 kts 220°
2026-05-06 18:32 58.71300 16.22070 31576 ft 364 kts 221°
2026-05-06 18:33 58.69284 16.18906 31694 ft 374 kts 220°
2026-05-06 18:33 58.67232 16.15695 31946 ft 379 kts 221°
2026-05-06 18:33 58.65193 16.12511 32251 ft 380 kts 221°
2026-05-06 18:33 58.63152 16.09330 32684 ft 380 kts 221°
2026-05-06 18:34 58.61095 16.06126 33120 ft 382 kts 220°
2026-05-06 18:34 58.59024 16.02904 33557 ft 384 kts 220°
2026-05-06 18:34 58.56964 15.99703 33976 ft 385 kts 220°
2026-05-06 18:34 58.54871 15.96454 34368 ft 385 kts 220°
2026-05-06 18:35 58.52810 15.93262 34759 ft 386 kts 220°
2026-05-06 18:35 58.50721 15.90032 35108 ft 385 kts 220°
2026-05-06 18:35 58.48643 15.86824 35415 ft 384 kts 220°
2026-05-06 18:35 58.46578 15.83641 35698 ft 384 kts 220°
2026-05-06 18:36 58.44486 15.80421 35911 ft 384 kts 221°
2026-05-06 18:36 58.42387 15.77191 35962 ft 387 kts 220°
2026-05-06 18:36 58.38225 15.70806 35972 ft 383 kts 220°
2026-05-06 18:37 58.33998 15.64339 35962 ft 397 kts 220°
2026-05-06 18:37 58.29647 15.57704 35954 ft 401 kts 220°
2026-05-06 18:38 58.25303 15.51102 35951 ft 398 kts 220°
2026-05-06 18:38 58.20970 15.44543 35949 ft 399 kts 220°
2026-05-06 18:39 58.16611 15.37958 35960 ft 400 kts 220°
2026-05-06 18:40 58.10064 15.28112 35940 ft 400 kts 220°
2026-05-06 18:40 58.05687 15.21555 35933 ft 399 kts 220°
2026-05-06 18:41 58.01315 15.15034 35933 ft 399 kts 220°
2026-05-06 18:41 57.96960 15.08555 35930 ft 399 kts 220°
2026-05-06 18:42 57.92578 15.02055 35929 ft 400 kts 220°
2026-05-06 18:42 57.88181 14.95555 35929 ft 402 kts 220°
2026-05-06 18:43 57.83811 14.89116 35925 ft 402 kts 220°
2026-05-06 18:43 57.79429 14.82680 35922 ft 402 kts 219°
2026-05-06 18:44 57.74996 14.76190 35921 ft 404 kts 219°
2026-05-06 18:44 57.70582 14.69747 35918 ft 404 kts 219°
2026-05-06 18:45 57.66129 14.63270 35911 ft 404 kts 220°
2026-05-06 18:45 57.61680 14.56820 35911 ft 405 kts 220°
2026-05-06 18:46 57.57217 14.50367 35914 ft 404 kts 219°
2026-05-06 18:46 57.52750 14.43932 35911 ft 405 kts 219°
2026-05-06 18:47 57.48296 14.37535 35923 ft 406 kts 219°
2026-05-06 18:47 57.43825 14.31134 35929 ft 408 kts 219°
2026-05-06 18:48 57.39316 14.24698 35931 ft 407 kts 219°
2026-05-06 18:48 57.34804 14.18281 35933 ft 407 kts 219°
2026-05-06 18:49 57.30297 14.11890 35920 ft 409 kts 219°
2026-05-06 18:49 57.25788 14.05517 35925 ft 410 kts 218°
2026-05-06 18:50 57.21249 13.99123 35925 ft 409 kts 219°
2026-05-06 18:50 57.16733 13.92779 35923 ft 410 kts 219°
2026-05-06 18:51 57.12217 13.86455 35915 ft 410 kts 219°
2026-05-06 18:51 57.07685 13.80131 35821 ft 402 kts 219°
2026-05-06 18:51 57.05439 13.77004 35560 ft 402 kts 218°
2026-05-06 18:52 57.03229 13.73932 35234 ft 405 kts 218°
2026-05-06 18:52 57.00963 13.70785 34772 ft 404 kts 218°
2026-05-06 18:52 56.98741 13.67706 34213 ft 402 kts 218°
2026-05-06 18:52 56.96518 13.64629 33584 ft 400 kts 218°
2026-05-06 18:53 56.94312 13.61582 32910 ft 393 kts 218°
2026-05-06 18:53 56.92148 13.58596 32223 ft 395 kts 218°
2026-05-06 18:53 56.89968 13.55591 31506 ft 384 kts 218°
2026-05-06 18:53 56.87865 13.52697 30800 ft 377 kts 218°
2026-05-06 18:54 56.85763 13.49807 30085 ft 380 kts 218°
2026-05-06 18:54 56.83639 13.46891 29372 ft 387 kts 218°
2026-05-06 18:54 56.81510 13.43972 28652 ft 382 kts 218°
2026-05-06 18:54 56.79399 13.41084 28020 ft 374 kts 219°
2026-05-06 18:55 56.77326 13.38251 27344 ft 372 kts 219°
2026-05-06 18:55 56.75266 13.35442 26680 ft 371 kts 219°
2026-05-06 18:55 56.73210 13.32640 26021 ft 369 kts 218°
2026-05-06 18:55 56.71169 13.29861 25366 ft 368 kts 219°
2026-05-06 18:56 56.69148 13.27105 24730 ft 366 kts 219°
2026-05-06 18:56 56.67096 13.24310 23865 ft 368 kts 219°
2026-05-06 18:56 56.65103 13.21601 23254 ft 354 kts 219°
2026-05-06 18:56 56.63163 13.18972 22709 ft 341 kts 219°
2026-05-06 18:57 56.61290 13.16442 22304 ft 333 kts 219°
2026-05-06 18:57 56.59446 13.13950 21685 ft 335 kts 219°
2026-05-06 18:57 56.57577 13.11430 21191 ft 332 kts 219°
2026-05-06 18:57 56.55748 13.08967 20641 ft 331 kts 219°
2026-05-06 18:58 56.53882 13.06456 20052 ft 332 kts 219°
2026-05-06 18:58 56.52049 13.03996 19590 ft 328 kts 219°
2026-05-06 18:58 56.50217 13.01542 19117 ft 325 kts 219°
2026-05-06 18:58 56.48423 12.99143 18662 ft 323 kts 219°
2026-05-06 18:59 56.46629 12.96743 18214 ft 320 kts 219°
2026-05-06 18:59 56.44844 12.94357 17769 ft 317 kts 219°
2026-05-06 18:59 56.43054 12.91958 17176 ft 320 kts 219°
2026-05-06 18:59 56.41283 12.89590 16693 ft 318 kts 219°
2026-05-06 19:00 56.39510 12.87227 16251 ft 316 kts 218°
2026-05-06 19:00 56.37748 12.84880 15820 ft 313 kts 218°
2026-05-06 19:00 56.36018 12.82578 15394 ft 311 kts 218°
2026-05-06 19:00 56.34275 12.80259 14959 ft 308 kts 218°
2026-05-06 19:01 56.32550 12.77963 14545 ft 310 kts 218°
2026-05-06 19:01 56.30796 12.75639 14127 ft 315 kts 218°
2026-05-06 19:01 56.29057 12.73343 13671 ft 312 kts 218°
2026-05-06 19:01 56.27299 12.71017 13259 ft 309 kts 218°
2026-05-06 19:02 56.25593 12.68766 12844 ft 307 kts 218°
2026-05-06 19:02 56.23875 12.66503 12455 ft 305 kts 218°
2026-05-06 19:02 56.22161 12.64241 11999 ft 303 kts 218°
2026-05-06 19:02 56.20477 12.62020 11616 ft 301 kts 218°
2026-05-06 19:03 56.18779 12.59783 11176 ft 301 kts 217°
2026-05-06 19:03 56.17084 12.57697 10943 ft 293 kts 211°
2026-05-06 19:03 56.15221 12.56237 10977 ft 290 kts 199°
2026-05-06 19:03 56.13274 12.55312 10953 ft 291 kts 194°
2026-05-06 19:04 56.11312 12.54529 10961 ft 290 kts 194°
2026-05-06 19:04 56.09313 12.53706 10957 ft 291 kts 195°
2026-05-06 19:04 56.07352 12.52843 10710 ft 294 kts 195°
2026-05-06 19:04 56.05386 12.51938 10419 ft 290 kts 196°
2026-05-06 19:05 56.03419 12.51017 10025 ft 291 kts 196°
2026-05-06 19:05 56.01466 12.50102 9576 ft 291 kts 196°
2026-05-06 19:05 55.99503 12.49181 9124 ft 292 kts 196°
2026-05-06 19:05 55.97555 12.48269 8675 ft 292 kts 195°
2026-05-06 19:06 55.95584 12.47345 8218 ft 293 kts 195°
2026-05-06 19:06 55.93611 12.46418 7953 ft 286 kts 195°
2026-05-06 19:06 55.91727 12.45525 7964 ft 280 kts 195°
2026-05-06 19:06 55.89813 12.44863 7576 ft 286 kts 181°
2026-05-06 19:07 55.87871 12.45700 6919 ft 292 kts 150°
2026-05-06 19:07 55.86382 12.48149 6255 ft 295 kts 123°
2026-05-06 19:07 55.85603 12.51445 5562 ft 292 kts 100°
2026-05-06 19:07 55.85407 12.54974 4995 ft 285 kts 94°
2026-05-06 19:08 55.85263 12.58426 4480 ft 274 kts 94°
2026-05-06 19:08 55.85100 12.61749 3970 ft 266 kts 95°
2026-05-06 19:08 55.84926 12.64944 3453 ft 258 kts 95°
2026-05-06 19:08 55.84753 12.68105 3018 ft 254 kts 96°
2026-05-06 19:09 55.84189 12.70993 2972 ft 240 kts 126°
2026-05-06 19:09 55.82880 12.72637 2986 ft 233 kts 163°
2026-05-06 19:09 55.81271 12.72465 2987 ft 239 kts 202°
2026-05-06 19:09 55.80020 12.70584 2998 ft 241 kts 233°
2026-05-06 19:10 55.78937 12.68301 2974 ft 240 kts 215°
2026-05-06 19:10 55.77423 12.67313 2986 ft 235 kts 177°
2026-05-06 19:10 55.75914 12.68148 2992 ft 228 kts 143°
2026-05-06 19:10 55.74683 12.69934 2982 ft 228 kts 139°
2026-05-06 19:11 55.73293 12.71281 2979 ft 232 kts 167°
2026-05-06 19:11 55.71688 12.70959 2984 ft 241 kts 205°
2026-05-06 19:11 55.70475 12.68882 2981 ft 246 kts 244°
2026-05-06 19:11 55.70211 12.65948 2987 ft 245 kts 282°
2026-05-06 19:12 55.70991 12.63335 2993 ft 242 kts 321°
2026-05-06 19:12 55.72474 12.62116 2989 ft 238 kts 358°
2026-05-06 19:12 55.74050 12.62768 2993 ft 234 kts 36°
2026-05-06 19:12 55.75278 12.64734 2985 ft 240 kts 49°
2026-05-06 19:13 55.76384 12.66928 2984 ft 239 kts 50°
2026-05-06 19:13 55.77498 12.69168 2986 ft 240 kts 50°
2026-05-06 19:13 55.78596 12.71382 2987 ft 240 kts 50°
2026-05-06 19:13 55.79693 12.73598 2985 ft 238 kts 50°
2026-05-06 19:14 55.80762 12.75838 2983 ft 237 kts 57°
2026-05-06 19:14 55.81274 12.78594 2984 ft 237 kts 91°
2026-05-06 19:14 55.80748 12.81343 2988 ft 242 kts 124°
2026-05-06 19:14 55.79603 12.83542 2977 ft 243 kts 134°
2026-05-06 19:15 55.78373 12.85561 2974 ft 242 kts 137°
2026-05-06 19:15 55.76878 12.87016 2911 ft 249 kts 166°
2026-05-06 19:15 55.75138 12.86946 2741 ft 250 kts 186°
2026-05-06 19:15 55.73434 12.86876 2547 ft 246 kts 175°
2026-05-06 19:16 55.71754 12.86459 2614 ft 247 kts 206°
2026-05-06 19:16 55.70505 12.84324 3110 ft 260 kts 239°
2026-05-06 19:16 55.69716 12.81477 3733 ft 258 kts 245°
2026-05-06 19:16 55.68942 12.78400 3019 ft 297 kts 245°
2026-05-06 19:17 55.67981 12.74978 1864 ft 317 kts 234°
2026-05-06 19:17 55.66582 12.72182 1708 ft 296 kts 219°
2026-05-06 19:17 55.64973 12.69979 1186 ft 287 kts 213°
2026-05-06 19:17 55.63495 12.67845 926 ft 260 kts 229°
2026-05-06 19:18 55.62487 12.65490 1027 ft 239 kts 232°
2026-05-06 19:18 55.61642 12.62874 694 ft 246 kts 246°
2026-05-06 19:18 55.61039 12.60315 1246 ft 214 kts 240°
2026-05-06 19:18 55.60158 12.58089 765 ft 231 kts 226°
2026-05-06 19:19 55.59093 12.56009 1003 ft 228 kts 227°
2026-05-06 19:19 55.58125 12.53861 1376 ft 217 kts 229°
2026-05-06 19:19 55.57098 12.51771 1173 ft 236 kts 226°
2026-05-06 19:19 55.55962 12.49560 1220 ft 240 kts 226°
2026-05-06 19:20 55.54732 12.47178 382 ft 282 kts 226°
2026-05-06 19:20 55.53540 12.44930 1685 ft 248 kts 223°
2026-05-06 19:20 55.52174 12.42676 1523 ft 277 kts 219°
2026-05-06 19:20 55.50712 12.40558 2167 ft 281 kts 217°
2026-05-06 19:21 55.49052 12.38299 1914 ft 300 kts 214°